Voltar ao catálogo

CZ-6A DEB

AtivoSSO
NORAD 54458·DEBRIS·🇨🇳 China

Lançado Nov 11, 2022 de Taiyuan Satellite Launch Center

Loading…

Próximas Passagens (próximas 24 horas)

TLE

AtualizadoSource: Space-Track

Época: Sep 14, 2026, 04:37 UTC

1 54458U 22151GJ  26257.19303055  .00002061  00000-0  71363-3 0  9997
2 54458  99.0247 331.9043 0141199 277.5887  80.9276 14.31417616199400

Acompanhe CZ-6A DEB em tempo real com AllMySat

Download on the App Store